Regional Weather Roundup
Issued by NWS

Home | Current Version | Previous Version | Graphics & Text | Print | Product List | Glossary Off
Versions: 1 2 3 4 5 6 7 8 9 10 11 12 13 14 15 16 17 18 19 20 21 22 23 24 25 26 27 28 29 30 31 32 33 34 35 36 37 38 39 40 41 42 43 44 45 46 47 48 49 50

000
ASUS43 KMPX 191910
RWRMN
WEATHER ROUNDUP FOR MINNESOTA
NATIONAL WEATHER SERVICE TWIN CITIES/CHANHASSEN MN
200 PM CDT FRI SEP 19 2014


NOTE: "FAIR" INDICATES FEW OR NO CLOUDS BELOW 12,000 FEET WITH NO
SIGNIFICANT WEATHER AND/OR OBSTRUCTIONS TO VISIBILITY. N/A MEANS
CURRENT SKY AND/OR WEATHER CONDITIONS ARE NOT AVAILABLE.

MNZ060>063-068>070-192000-
   Twin Cities Metro

CITY           SKY/WX    TMP DP  RH WIND       PRES   REMARKS
TWIN CITIES    CLOUDY    75  60  59 S18G24    29.70F
ST PAUL        CLOUDY    76  61  59 S18G26    29.71F
CRYSTAL        CLOUDY    74  60  61 S12       29.69F
BLAINE         CLOUDY    73  63  68 S12       29.70F
LAKEVILLE      MOSUNNY   75  61  60 S17G26    29.70F
EDEN PRAIRIE   CLOUDY    76  62  62 S15G29    29.69F
SOUTH ST PAUL  PTSUNNY   77  59  54 S20G30    29.71F
LAKE ELMO      CLOUDY    73  61  64 SW17G29   29.73F
$$
MNZ001>005-007-008-013>017-022>024-027-028-192000-
   Northwest Minnesota

CITY           SKY/WX    TMP DP  RH WIND       PRES   REMARKS
BEMIDJI        CLOUDY    64  61  89 SW10      29.62F
HALLOCK        PTSUNNY   72  64  78 SW12      29.49S
ROSEAU         CLOUDY    64  59  82 S10       29.51F
WARROAD        CLOUDY    63  59  88 SW9       29.52S
THIEF RVR FALL CLOUDY    66  64  94 S21       29.55R
CROOKSTON      CLOUDY    70  64  83 S17       29.55F
FOSSTON        CLOUDY    66  61  82 S17       29.59F
DETROIT LAKES  CLOUDY    64  61  88 SW12      29.66R
MOORHEAD       CLOUDY    72  66  83 S9        29.61F
PARK RAPIDS    CLOUDY    64  61  90 S10       29.64F
MAHNOMEN       DRIZZLE   64  62  92 S13G18    29.61F
$$
MNZ006-009>011-018-025>026-192000-
   North Central Minnesota

CITY           SKY/WX    TMP DP  RH WIND       PRES   REMARKS
BAUDETTE       LGT RAIN  62  61  96 S12       29.54F
FLAG ISLAND    LGT RAIN  61  59  94 S6        29.50F
INTL FALLS     RAIN      60  59  96 SW8       29.58F FOG
WASKISH        CLOUDY    63  61  94 SW3       29.61S
BIG FORK       LGT RAIN  61  59  94 SW15      29.64S
LONGVILLE      CLOUDY    63  59  88 S10G17    29.67S
GRAND RAPIDS   CLOUDY    61  55  82 SW12      29.68S
CRANE LAKE     LGT RAIN  57  55  94 S7        29.63F
ORR            CLOUDY    59  55  88 S10       29.61F
COOK           CLOUDY    59  57  94 S12G17    29.65F FOG
WALKER         LGT RAIN  62  60  93 SW12      29.64F
$$
MNZ012-019>021-037-192000-
   Northeast Minnesota

CITY           SKY/WX    TMP DP  RH WIND       PRES   REMARKS
DULUTH         CLOUDY    63  55  75 SW16G25   29.69F
ELY            DRIZZLE   57  55  94 SW8G16    29.66F
HIBBING        CLOUDY    61  56  83 S9        29.67F
EVELETH        CLOUDY    59  55  88 SW12      29.69F FOG
DULUTH HARBOR  CLOUDY    66  59  77 S13       29.68F
TWO HARBORS    CLOUDY    63  54  72 SW13G18   29.68F
SILVER BAY     CLOUDY    61  57  88 S9G17     29.67F
GRAND MARAIS     N/A     55  53  93 CALM      29.69F
G MARAIS ARPRT LGT RAIN  52  48  87 S8        29.71F
$$
MNZ029>031-032-039>041-046>048-054>057-064-192000-
   West Central Minnesota

CITY           SKY/WX    TMP DP  RH WIND       PRES   REMARKS
FERGUS FALLS   CLOUDY    66  61  82 S12       29.64F
WHEATON        CLOUDY    66  63  88 S6        29.66F
MORRIS         CLOUDY    66  64  94 S7        29.66S
ALEXANDRIA     CLOUDY    63  62  97 S10       29.68R FOG
ELBOW LAKE     LGT RAIN  64  63  97 S8        29.66F
WADENA         LGT RAIN  63  61  94 S8        29.68S
GLENWOOD       LGT RAIN  64  63  94 S12       29.68F
APPLETON       CLOUDY    72  63  73 S8        29.65F
BENSON         CLOUDY    70  63  78 SW10      29.66F
ORTONVILLE     CLOUDY    72  63  73 S9        29.65F
MADISON        CLOUDY    73  64  73 S6        29.66F
WILLMAR        FAIR      70  61  73 S6        29.71F
$$
MNZ033>034-036-042>043-049>051-058-059-192000-
   Central Minnesota

CITY           SKY/WX    TMP DP  RH WIND       PRES   REMARKS
ST CLOUD       LGT RAIN  64  61  90 S10       29.72S FOG
SAUK CENTRE    CLOUDY    63  62  97 S9        29.68F FOG
PAYNESVILLE    DRIZZLE   61  61 100 E8        29.70F
AITKIN         CLOUDY    63  57  82 S10       29.68F HAZE
PINE RIVER     CLOUDY    63  59  88 S5        29.71F
BRAINERD       LGT RAIN  60  59  96 S12       29.68F FOG
STAPLES        CLOUDY    61  59  94 SW5       29.69R FOG
LONG PRAIRIE   CLOUDY    61  61 100 S8        29.69F FOG
LITTLE FALLS   DRIZZLE   61  59  94 S10       29.69F
LITCHFIELD     CLOUDY    66  63  88 CALM      29.73S
BUFFALO        CLOUDY    67  59  75 SW6       29.73F
MAPLE LAKE     CLOUDY    66  62  84 S5        29.74S
$$
MNZ037-044-045-052-053-192000-
   East Central Minnesota

CITY           SKY/WX    TMP DP  RH WIND       PRES   REMARKS
PRINCETON      CLOUDY    66  61  82 S8        29.72F
MORA           CLOUDY    63  55  77 S8        29.73R
CAMBRIDGE      PTSUNNY   70  57  64 S3        29.71F
RUSH CITY      CLOUDY    67  59  76 CALM      29.72F
MOOSE LAKE     CLOUDY    63  55  77 SW12G17   29.69S
HINCKLEY       CLOUDY    64  59  82 S7        29.72F
CLOQUET        CLOUDY    63  55  77 SW13      29.71R
MCGREGOR       CLOUDY    61  59  94 S12G17    29.71R
$$
MNZ071>073-080-081-089-090-097-098-192000-
   Southwest Minnesota

CITY           SKY/WX    TMP DP  RH WIND       PRES   REMARKS
MONTEVIDEO     CLOUDY    72  64  78 S6        29.69S
GRANITE FALLS  CLOUDY    71  64  76 S10       29.70F
CANBY          CLOUDY    74  65  72 SW6       29.68F
MARSHALL       CLOUDY    77  63  61 W17       29.68S
REDWOOD FALLS  CLOUDY    75  63  66 SW9       29.70F
OLIVIA         CLOUDY    70  61  73 CALM      29.71R
PIPESTONE      MOSUNNY   81  64  57 SW20G28   29.72R
WINDOM         SUNNY     81  63  54 S23G35    29.67F
WORTHINGTON    SUNNY     79  64  61 S23G33    29.71F
JACKSON        SUNNY     81  61  50 S25G36    29.72F
TRACY          PTSUNNY   76  65  68 SW9       29.71R
SLAYTON        MOSUNNY   80  62  55 SW28G33   29.71F
$$
MNZ065>067-074>077-082>085-091>093-192000-
   South Central Minnesota

CITY           SKY/WX    TMP DP  RH WIND       PRES   REMARKS
MANKATO        SUNNY     81  61  50 S26G35    29.68F
NEW ULM        MOSUNNY   79  64  61 S10       29.69F
ST JAMES       SUNNY     82  63  51 S25G33    29.68F
FAIRMONT       SUNNY     81  57  44 S28G33    29.72F
GLENCOE        CLOUDY    74  61  63 SW9G17    29.70F
FARIBAULT      SUNNY     81  55  41 S21G32    29.72F
OWATONNA       SUNNY     77  61  57 S18G35    29.74F
WASECA         SUNNY     77  55  47 S28G36    29.75F
ALBERT LEA     SUNNY     79  61  53 S18G29    29.78F
$$
MNZ078>079-086>088-094>096-192000-
   Southeast Minnesota

CITY           SKY/WX    TMP DP  RH WIND       PRES   REMARKS
ROCHESTER      SUNNY     73  58  59 S25G39    29.80F
RED WING       SUNNY     75  57  53 S14G22    29.75F
STANTON        MOSUNNY   78  60  53 S16G32    29.71F
DODGE CENTER   SUNNY     73  61  64 S30G38    29.78F
WINONA         MOSUNNY   73  55  53 S14G21    29.83F
AUSTIN         MOSUNNY   73  61  64 S23G35    29.80F
PRESTON        MOSUNNY   71  61  70 S20G36    29.87F
$$
ABBREVIATIONS USED IN REMARKS
   TC - TEMPERATURES IN CELSIUS
  WCI - WIND CHILL INDEX
   HX - HEAT INDEX
  VSB - VISIBILITY
$$


USA.gov is the U.S. government's official web portal to all federal, state and local government web resources and services.